Location: Enborne
(51.3833°N, 1.3667°W)
Time: 16:51:10
(UTC+00:00)

Cosmos 1844 Rocket - Pass Details

Date: 23 January 2021
Orbit: 826 x 843 km, 71.0° (Epoch: 06 March)

Event Time Altitude Azimuth Distance (km) Brightness Sun altitude
Rises 19:00:10 0° 222° (SW) 3,391 6.5 -21.5°
Reaches altitude 10° 19:02:39 10° 226° (SW) 2,458 5.8 -21.9°
Maximum altitude 19:08:13 58° 305° (NW) 976 3.2 -22.8°
Enters shadow 19:12:05 20° 20° (NNE) 1,845 4.2 -23.4°
